STARLINK-32592, 62035

Orbit data source: Space-Track

STARLINK-32592, 62035 is a payload satellite owned by SpaceX/Seattle (US) in LEO that was launched on Thu, 21 Nov 2024 UTC via an FALCON 9 launch vehicle from the Air Force Eastern Test Range (AFETR). Payload-class satellites include a variety of spacecraft equipped with specific instruments for various scientific and technological missions. These include communications satellites like Starlink; space stations such as the ISS; scientific satellites like the Hubble; Earth observation satellites from companies like Planet Labs, Umbra, and HawkEye 360; GPS; miniature CubeSats for education and research; and military/defense satellites.

Loading next visibility...
Identifier
62035, 2024-216D
Orbit
LEO
Last TLE update
14 hours ago
Origin
Manufacturer
SpaceX/Seattle
Mission
Operational Commercial Communications
Bus & Motor
STARLINK V2M, Unknown motor
Mass
730 kg wet, ~700 kg dry
Launch date (UTC)
2024-11-21 (8 months ago)
Launch vehicle
FALCON 9
Launch site
Air Force Eastern Test Range (AFETR)
Object type
Payload
Rocket body
Debris
Shape & HBR
Box + 2 Pan, 29 m
Radar Cross Section
36.964 m², Large (>1 m²)

Expand to show TLE details & history

TLE from 14 hours ago
0 STARLINK-32592
1 62035U 24216D   25189.75203299  .00016320  00000-0  60115-3 0  9991
2 62035  43.0026 201.2996 0001866 285.5883  74.4762 15.27586534 36490
Epoch: 2025-07-08T18:02Z
TLE epoch observation values (Epoch: 2025-07-08T18:02:55.65Z)
Latitude
-0.00006°
Longitude
3.62515°
Altitude
482.463 km
Speed
7.626 km/s
True Right ascension
13h 25m 11s
True Declination
0° 00' 00"
Sunlit
Object was in daylight at epoch
Visualization orbit readout
Latitude
-39.98612°
Longitude
-116.16293°
Altitude
494.024 km
Speed
7.619 km/s
Apparent Right ascension
06h 35m 47s
Apparent Declination
-41° 12' 28"
Sunlit
Object is in daylight
Visualization observer readout
Local Sidereal Time
19:51:02
Azimuth
101.267° ESE
Elevation
-75.677°
Doppler factor
1
Orbital elements
Apogee altitude
486.255 km
Perigee altitude
483.694 km
Semi-major axis
6,863.111 km
Eccentricity
0.00019
Inclination
43.0026°
RAAN
201.2996°
Arg. of periapsis
285.5883°
True anomaly
Unknown
Mean anomaly
74.4762°
Eccentric anomaly
Unknown
Mean motion
3.81735 °/min
Orbital period
94.31 mins
BSTAR
0.00060115
Loading maneuver chart data...
Loading SW <> Apogee altitude chart data...
Loading historical data...
Loading historical data...
Loading historical data...
Loading historical data...
Loading historical data...
Loading historical data...
Loading historical data...

STARLINK-32592 Visibility forecast

Observer location: undefined°, undefined°

Span
Click to sort rows by Start time (UTC) header in descending order
Start Az.
Max El. time (UTC)
Max El. Az.
Max El.
End time (UTC)
End Az.
6 mins2025-07-09 08:35:30.387Z289.104° WNW2025-07-09 08:38:30.387Z332.679° NNW44.553°2025-07-09 08:41:30.387Z104.787° ESE
4 mins2025-07-09 10:15:30.387Z255.557° W2025-07-09 10:17:30.387Z208.448° SW23.588°2025-07-09 10:19:30.387Z165.893° S
4 mins2025-07-10 03:12:30.387Z177.492° S2025-07-10 03:13:30.387Z156.008° SSE20.465°2025-07-10 03:16:30.387Z96.969° ESE
5 mins2025-07-10 04:50:30.387Z250.527° W2025-07-10 04:52:30.387Z239.008° WSW44.956°2025-07-10 04:55:30.387Z71.959° E
5 mins2025-07-10 06:29:30.387Z289.985° WNW2025-07-10 06:31:30.387Z346.432° N37.753°2025-07-10 06:34:30.387Z72.482° E
|